Zurück zum Katalog

SDA_1671

AktivMilitärPO
NORAD 65981·PAYLOAD·🇺🇸 United States

Gestartet Oct 15, 2025 von Vandenberg Space Force Base

Loading…

Nächste Überflüge (nächste 24 Stunden)

TLE

AktuellSource: Space-Track

Epoche: Sep 13, 2026, 21:53 UTC

1 65981U 25230H   26256.91226602  .00000128  00000-0  11625-3 0  9999
2 65981  81.2997 130.3442 0002240 347.5612  12.5485 13.78087508 46035

Verfolge SDA_1671 in Echtzeit mit AllMySat

Download on the App Store